Weather Roundup
Issued by NWS Corpus Christi, TX

Current Version | Previous Version | Text Only | Print | Product List | Glossary On
Versions: 1 2 3 4 5 6 7 8 9 10 11 12 13 14 15 16 17 18 19 20 21 22 23 24 25 26 27 28 29 30 31 32 33 34 35 36 37 38 39 40 41 42 43 44 45 46 47 48 49 50
000
ASUS44 KCRP 241910
HRRCRP

SOUTH TEXAS REGIONAL WEATHER ROUNDUP
NATIONAL WEATHER SERVICE CORPUS CHRISTI TX
200 PM CDT SAT JUN 24 2017


TXZ229>244-242000-
...CORPUS CHRISTI AREA OBSERVATIONS...

CITY           SKY/WX    TMP DP  RH WIND       PRES   REMARKS
CORPUS CHRISTI PTSUNNY   93  76  57 SE15      30.00S THUNDER HX 105
NAS CORPUS CHR NOT AVBL
ROCKPORT       MOSUNNY   91  75  59 SE10      30.02F HX 101
KINGSVILLE NAS TSTM      79  77  94 SE15      30.00F FOG
ALICE          LGT RAIN  86  73  65 E10       30.01R HX  93
ORANGE GROVE   TSTM      76  74  93 E16       30.05R
FALFURRIAS     PTSUNNY   90  67  46 SE17G24   29.97S HX  94
$$

...VICTORIA AREA OBSERVATIONS...

CITY           SKY/WX    TMP DP  RH WIND       PRES   REMARKS
VICTORIA       CLOUDY    75  73  93 N12       30.09S
BEEVILLE       PTSUNNY  N/A N/A N/A NE14      30.07F
PLEASANTON     TSTM      72  70  92 E8G17     30.11F
SAN ANTONIO    CLOUDY    81  66  60 NE18G28   30.13R
$$

...LAREDO AREA OBSERVATIONS...

CITY           SKY/WX    TMP DP  RH WIND       PRES   REMARKS
LAREDO         CLOUDY    97  69  40 E10       29.99S HX 103
COTULLA        CLOUDY    93  68  43 E15       30.02S HX  97
DEL RIO        CLOUDY    90  73  57 E9        30.04S HX  98
MCALLEN        SUNNY    100  70  37 E14G20    29.95S HX 107
HEBBRONVILLE   MOSUNNY   93  67  41 E7        30.00F HX  97
$$

...OTHER TEXAS OBSERVATIONS...

CITY           SKY/WX    TMP DP  RH WIND       PRES   REMARKS
BROWNSVILLE    MOSUNNY   93  75  55 SE13      29.97S HX 104
HOUSTON        PTSUNNY   80  76  87 NW8       30.08S
COL. STATION   CLOUDY    81  69  67 N10       30.12S
AUSTIN         CLOUDY    83  69  62 NE14      30.12F
WACO           LGT RAIN  76  72  87 S7        30.06F
FORT WORTH     CLOUDY    78  70  76 NE15      30.08R
WICHITA FALLS  CLOUDY    76  65  68 E8        30.17F
LUBBOCK        PTSUNNY   76  58  53 E8G18     30.25F
EL PASO        MOSUNNY   91  53  27 SE15G33   30.12S
$$

...MARINE OBSERVATIONS...

STATION/POSITION TIME  SKY/WX   TEMP    WIND        PRES    VSBY  WAVE   SWELL
                                AIR SEA DIR/SP/G                  HT/PER HT/PER
                 (UTC)          (F)     (DEG/KT/KT) (MB)    (MI)  (FT/S) (FT/S)
PORT ARANSAS     1800            84 86  120/  9/ 10 1017.1R
BUOY 90 E PORT A 1750            84 84  100/ 10/ 12 1017.0          5/ 7   5/ 7
BUOY 45 SE BAFFI 1750            84     120/ 10/ 12 1015.5          5/ 7   5/ 7
BUOY 200 E PT IS 1750            84 84  110/ 12/ 16 1016.2          5/ 7   5/ 7
BUOY 15 E GALVES 1750            83 85  210/  6/  8 1017.6          3/ 7   3/ 7
$$




USA.gov is the U.S. government's official web portal to all federal, state and local government web resources and services.